Location: Tel Aviv
(32.0670°N, 34.7670°E)
Time: 07:58:54
(UTC+02:00)

Tiros 1 despin weight - Visible Passes

Search period start: 29 November 2023 00:00
Search period end: 09 December 2023 00:00
Orbit: 583 x 628 km, 48.2° (Epoch: 28 November)

Date Brightness Start Highest point End Pass type
(mag) Time Alt. Az. Time Alt. Az. Time Alt. Az.
29 Nov ? 18:13:16 10° SSW 18:17:05 37° SE 18:17:05 37° SE visible
30 Nov ? 18:25:10 10° SW 18:29:22 77° SSE 18:29:22 77° SSE visible
01 Dec ? 16:57:43 10° S 17:00:54 20° SE 17:04:04 10° E visible
01 Dec ? 18:37:36 10° WSW 18:41:34 52° NW 18:41:34 52° NW visible
02 Dec ? 17:08:56 10° SSW 17:13:01 41° SE 17:16:53 11° ENE visible
02 Dec ? 18:50:29 10° W 18:53:41 29° NW 18:53:41 29° NW visible
03 Dec ? 17:20:52 10° SW 17:25:14 86° SE 17:28:55 14° NE visible
03 Dec ? 19:03:45 10° WNW 19:05:43 17° NW 19:05:43 17° NW visible
04 Dec ? 17:33:20 10° WSW 17:37:34 49° NW 17:40:53 16° NE visible
04 Dec ? 19:17:23 10° NW 19:17:41 11° NW 19:17:41 11° NW visible
05 Dec ? 17:46:14 10° W 17:50:01 28° NNW 17:52:47 15° NNE visible
06 Dec ? 17:59:31 10° WNW 18:02:35 18° NNW 18:04:37 14° N visible
07 Dec ? 18:13:11 10° NW 18:15:17 13° NNW 18:16:24 12° N visible
08 Dec ? 18:27:23 10° NNW 18:28:03 10° N 18:28:09 10° N visible
